Harvard, Illinois, United States (60033)
Lat: 42.42N, Lon: 88.61W
Wx Zone: ILZ005
Local Info
Past Weather Observations for Today

NOTE: This archive is for the closest National Weather Service station to Harvard. Information may differ from the station used for current weather conditions.

Click here for Long-term Archive

Time Weather Temperature Dewpoint Humidity Pressure Winds Precip Visibility
09:55
Clear
21°F / -6°C 16°F / -9°C 80% 29.92 in
(1013 mb)
S 6.9 mph
(S 11 kph)
- 10SM
09:35
Partly Cloudy
19°F / -7°C 14°F / -10°C 79% 29.92 in
(1013 mb)
S 3.5 mph
(S 6 kph)
- 10SM
09:15
Overcast
18°F / -8°C 14°F / -10°C 86% 29.92 in
(1013 mb)
S 3.5 mph
(S 6 kph)
- 10SM
08:55
Overcast
16°F / -9°C 12°F / -11°C 86% 29.95 in
(1014 mb)
Calm - 10SM
08:35
Overcast
14°F / -10°C 12°F / -11°C 92% 29.95 in
(1014 mb)
Calm - 10SM
08:15
Mostly Cloudy
14°F / -10°C 10°F / -12°C 85% 29.95 in
(1014 mb)
Calm - 10SM
07:55
Partly Cloudy
12°F / -11°C 10°F / -12°C 92% 29.95 in
(1014 mb)
Calm - 10SM
07:35
Partly Cloudy
12°F / -11°C 10°F / -12°C 92% 29.95 in
(1014 mb)
Calm - 10SM
07:15
Partly Cloudy
10°F / -12°C 9°F / -13°C 92% 29.95 in
(1014 mb)
Calm - 10SM
06:55
Clear
10°F / -12°C 9°F / -13°C 92% 29.95 in
(1014 mb)
Calm - 10SM
06:35
Clear
10°F / -12°C 9°F / -13°C 92% 29.95 in
(1014 mb)
Calm - 10SM
06:15
Clear
10°F / -12°C 9°F / -13°C 92% 29.95 in
(1014 mb)
Calm - 10SM
05:55
Clear
10°F / -12°C 9°F / -13°C 92% 29.95 in
(1014 mb)
Calm - 10SM
05:35
Clear
10°F / -12°C 9°F / -13°C 92% 29.98 in
(1015 mb)
Calm - 10SM
05:15
Clear
9°F / -13°C 7°F / -14°C 92% 29.98 in
(1015 mb)
Calm - 10SM
04:55
Clear
9°F / -13°C 7°F / -14°C 92% 29.95 in
(1014 mb)
Calm - 10SM
04:35
Clear
9°F / -13°C 7°F / -14°C 92% 29.98 in
(1015 mb)
Calm - 10SM
04:15
Clear
9°F / -13°C 7°F / -14°C 92% 29.98 in
(1015 mb)
Calm - 10SM
03:55
Clear
10°F / -12°C 7°F / -14°C 85% 29.98 in
(1015 mb)
Calm - 10SM
03:35
Clear
9°F / -13°C 7°F / -14°C 92% 29.98 in
(1015 mb)
Calm - 10SM
03:15
Clear
10°F / -12°C 7°F / -14°C 85% 29.98 in
(1015 mb)
Calm - 10SM
02:55
Clear
10°F / -12°C 9°F / -13°C 92% 30.01 in
(1016 mb)
WNW 4.6 mph
(WNW 7 kph)
- 10SM
02:35
Clear
10°F / -12°C 9°F / -13°C 92% 30.01 in
(1016 mb)
NW 4.6 mph
(NW 7 kph)
- 10SM
02:15
Clear
12°F / -11°C 9°F / -13°C 85% 30.01 in
(1016 mb)
WNW 3.5 mph
(WNW 6 kph)
- 10SM
01:55
Clear
10°F / -12°C 9°F / -13°C 92% 30.01 in
(1016 mb)
NW 4.6 mph
(NW 7 kph)
- 10SM
01:35
Clear
12°F / -11°C 9°F / -13°C 85% 30.01 in
(1016 mb)
NW 3.5 mph
(NW 6 kph)
- 10SM
01:15
Clear
12°F / -11°C 9°F / -13°C 85% 30.01 in
(1016 mb)
NE 3.5 mph
(NE 6 kph)
- 10SM
00:55
Clear
14°F / -10°C 10°F / -12°C 85% 30.01 in
(1016 mb)
Calm - 10SM
00:35
Clear
14°F / -10°C 10°F / -12°C 85% 30.01 in
(1016 mb)
NNW 8.1 mph
(NNW 13 kph)
- 10SM
00:15
Clear
14°F / -10°C 10°F / -12°C 85% 30.01 in
(1016 mb)
NNW 5.8 mph
(NNW 9 kph)
- 10SM
Time Weather Temperature Dewpoint Humidity Pressure Winds Precip Visibility


Weather for websites

WeatherForYou.com, LLC is not responsible for any damages or problems caused by this service. Current weather conditions are obtained from the closest station including government and personal stations which may have varying degrees of accuracy. Weather forecasts are derived from the NOAA NDFD. Like all things, this site belongs to Jesus Christ... He just trusts me to maintain it. If you have any questions or comments email webmaster@weatherforyou.com

Copyright © 2015, WeatherForYou.com LLC. All rights reserved.